Regional Weather Roundup
Issued by NWS

Home | Current Version | Previous Version | Graphics & Text | Print | Product List | Glossary Off
Versions: 1 2 3 4 5 6 7 8 9 10 11 12 13 14 15 16 17 18 19 20 21 22 23 24 25 26 27 28 29 30 31 32 33 34 35 36 37 38 39 40 41 42 43 44 45 46 47 48 49 50

000
ASUS43 KMPX 012010
RWRMN
WEATHER ROUNDUP FOR MINNESOTA
NATIONAL WEATHER SERVICE TWIN CITIES/CHANHASSEN MN
300 PM CDT WED OCT 01 2014


NOTE: "FAIR" INDICATES FEW OR NO CLOUDS BELOW 12,000 FEET WITH NO
SIGNIFICANT WEATHER AND/OR OBSTRUCTIONS TO VISIBILITY. N/A MEANS
CURRENT SKY AND/OR WEATHER CONDITIONS ARE NOT AVAILABLE.

MNZ060>063-068>070-012100-
   Twin Cities Metro

CITY           SKY/WX    TMP DP  RH WIND       PRES   REMARKS
TWIN CITIES    CLOUDY    54  52  93 SE7       29.78F
ST PAUL        CLOUDY    54  52  93 SE12      29.79F
CRYSTAL        CLOUDY    56  51  84 SE10      29.77F
BLAINE         CLOUDY    55  55 100 SE12      29.78
LAKEVILLE      CLOUDY    54  54 100 SE8       29.78S
EDEN PRAIRIE   CLOUDY    55  53  93 SE6       29.76F
SOUTH ST PAUL  CLOUDY    54  53  95 SE7       29.78F
LAKE ELMO      CLOUDY    54  52  94 SE6       29.80F
$$
MNZ001>005-007-008-013>017-022>024-027-028-012100-
   Northwest Minnesota

CITY           SKY/WX    TMP DP  RH WIND       PRES   REMARKS
BEMIDJI        CLOUDY    56  52  85 S14       29.66F
HALLOCK        MOSUNNY   64  55  72 SW16G23   29.54R
ROSEAU         PTSUNNY   66  55  68 S20       29.56R
WARROAD        PTSUNNY   64  55  72 S8        29.56S
THIEF RVR FALL CLOUDY    64  54  68 SW17G24   29.59S
CROOKSTON      PTSUNNY   66  52  59 W24       29.61R
FOSSTON        CLOUDY    63  54  72 S18       29.62S
DETROIT LAKES  PTSUNNY   66  57  72 S13       29.66S
PARK RAPIDS    CLOUDY    55  52  89 SE14      29.69F
MAHNOMEN       CLOUDY    65  57  75 SW12G18   29.63S
$$
MNZ006-009>011-018-025>026-012100-
   North Central Minnesota

CITY           SKY/WX    TMP DP  RH WIND       PRES   REMARKS
BAUDETTE       CLOUDY    58  52  80 S8G21     29.61F
FLAG ISLAND    CLOUDY    59  55  88 S26       29.54F
INTL FALLS     CLOUDY    53  49  86 S8        29.68F
WASKISH        CLOUDY    57  54  88 S9G17     29.65S
BIG FORK       CLOUDY    54  48  82 S9G16     29.71F
LONGVILLE      CLOUDY    54  52  94 S9        29.71F
GRAND RAPIDS   CLOUDY    50  46  87 SE12      29.73F
CRANE LAKE     RAIN      48  48 100 S3        29.74F
ORR            DRIZZLE   50  46  87 SE9G17    29.70F
COOK           RAIN      50  48  93 S6        29.75S
WALKER         CLOUDY    54  50  88 S9        29.69S
$$
MNZ012-019>021-037-012100-
   Northeast Minnesota

CITY           SKY/WX    TMP DP  RH WIND       PRES   REMARKS
DULUTH         LGT RAIN  50  47  89 SE10      29.79S FOG
ELY            RAIN      48  46  93 SE7       29.76F
HIBBING        CLOUDY    50  48  93 S8        29.76F
EVELETH        LGT RAIN  50  48  93 S9        29.77F
DULUTH HARBOR  DRIZZLE   52  48  87 CALM      29.82S
TWO HARBORS    LGT RAIN  46  43  87 E6        29.80S
SILVER BAY     LGT RAIN  46  46 100 E5        29.80F
GRAND MARAIS     N/A     49  47  93 E3        29.86F
G MARAIS ARPRT LGT RAIN  45  41  87 SE6       29.84F
$$
MNZ029>031-032-039>041-046>048-054>057-064-012100-
   West Central Minnesota

CITY           SKY/WX    TMP DP  RH WIND       PRES   REMARKS
FERGUS FALLS   MOSUNNY   72  50  46 W16       29.66S
WHEATON        SUNNY     72  52  49 W10G16    29.68F
MORRIS         MOSUNNY   70  61  73 S7        29.67S
ALEXANDRIA     CLOUDY    60  57  89 SE12      29.71F
ELBOW LAKE     FAIR      71  54  54 SW12      29.67S
WADENA         CLOUDY    57  54  88 S8        29.70S FOG
GLENWOOD       MOSUNNY   61  55  82 SE13      29.71F
APPLETON       MOSUNNY   73  57  56 SW5       29.67S
BENSON         LGT RAIN  66  59  77 S8        29.69S
ORTONVILLE     MOSUNNY   73  52  46 W13       29.68S
MADISON        MOSUNNY   79  54  41 W10       29.68S
WILLMAR        FAIR      66  55  68 SE8       29.72F
$$
MNZ033>034-036-042>043-049>051-058-059-012100-
   Central Minnesota

CITY           SKY/WX    TMP DP  RH WIND       PRES   REMARKS
ST CLOUD       CLOUDY    57  52  83 S10       29.75F
SAUK CENTRE    CLOUDY    58  55  88 SE12      29.72F
PAYNESVILLE    CLOUDY    58  53  85 E8        29.74S
AITKIN         MIX PCPN  54  48  82 S8        29.74S
PINE RIVER     CLOUDY    54  52  94 SE12      29.75F
BRAINERD       CLOUDY    52  50  93 S10       29.74F
STAPLES        CLOUDY    54  52  94 S7        29.71S FOG
LONG PRAIRIE   CLOUDY    54  52  94 SE10      29.72F FOG
LITTLE FALLS   CLOUDY    54  50  87 S7        29.74S
LITCHFIELD     CLOUDY    63  55  77 SE9       29.74F
BUFFALO        CLOUDY    56  51  83 SE9G16    29.76F
MAPLE LAKE     CLOUDY    56  54  91 SE5       29.77R
$$
MNZ037-044-045-052-053-012100-
   East Central Minnesota

CITY           SKY/WX    TMP DP  RH WIND       PRES   REMARKS
PRINCETON      CLOUDY    55  52  88 SE8       29.76F
MORA           DRIZZLE   50  46  87 SE6       29.78F
CAMBRIDGE      CLOUDY    54  46  76 SE5       29.75F
RUSH CITY      CLOUDY    51  49  95 SE9       29.78F
MOOSE LAKE     LGT RAIN  50  48  93 S3        29.77S
HINCKLEY       DRIZZLE   52  50  93 SE8       29.78F
CLOQUET        LGT RAIN  48  46  93 SE6       29.78F
MCGREGOR       CLOUDY    50  48  93 S14       29.77R
$$
MNZ071>073-080-081-089-090-097-098-012100-
   Southwest Minnesota

CITY           SKY/WX    TMP DP  RH WIND       PRES   REMARKS
MONTEVIDEO     MOSUNNY   73  61  64 S10G16    29.69F
GRANITE FALLS  PTSUNNY   70  58  65 SE12G17   29.71S
CANBY          MOSUNNY   74  55  50 W12       29.69F
MARSHALL       MOSUNNY   75  55  50 W9        29.68F
REDWOOD FALLS  PTSUNNY   68  56  65 SE13      29.71F
OLIVIA         MOSUNNY   64  55  72 S10       29.72R
PIPESTONE      PTSUNNY   72  55  56 W5        29.72S
WINDOM         PTSUNNY   68  57  68 S8        29.74S
WORTHINGTON    MOSUNNY   68  57  68 SE13      29.74F
JACKSON        PTSUNNY   68  57  68 S9        29.76F
TRACY          MOSUNNY   70  60  69 S12       29.71F
SLAYTON        MOSUNNY   70  58  66 SE9       29.73S
$$
MNZ065>067-074>077-082>085-091>093-012100-
   South Central Minnesota

CITY           SKY/WX    TMP DP  RH WIND       PRES   REMARKS
MANKATO        CLOUDY    57  52  82 S8        29.76S
NEW ULM        MOSUNNY   59  55  88 SE9       29.75S
ST JAMES       CLOUDY    61  55  82 S6        29.77R
FAIRMONT       CLOUDY    61  55  82 S7        29.75F
GLENCOE        CLOUDY    59  55  85 SE8       29.75S
FARIBAULT      CLOUDY    55  55 100 SE8       29.78F FOG
OWATONNA       CLOUDY    57  54  88 SE9       29.78F FOG
WASECA         CLOUDY    55  52  88 S6        29.79F FOG
ALBERT LEA     CLOUDY    57  57 100 S8        29.78S FOG
$$
MNZ078>079-086>088-094>096-012100-
   Southeast Minnesota

CITY           SKY/WX    TMP DP  RH WIND       PRES   REMARKS
ROCHESTER      LGT RAIN  55  54  96 S9        29.81S FOG
RED WING       CLOUDY    54  52  94 CALM      29.79F FOG
STANTON        CLOUDY    56  53  89 SE6       29.78S FOG
DODGE CENTER   CLOUDY    57  55  94 S12       29.79F
WINONA         LGT RAIN  55  54  94 SE7       29.82F
AUSTIN         CLOUDY    55  55 100 S5        29.79F FOG
PRESTON        CLOUDY    56  52  88 SE7       29.82S
$$
ABBREVIATIONS USED IN REMARKS
   TC - TEMPERATURES IN CELSIUS
  WCI - WIND CHILL INDEX
   HX - HEAT INDEX
  VSB - VISIBILITY
$$


USA.gov is the U.S. government's official web portal to all federal, state and local government web resources and services.